Kuchera_Ratio
0.0 0.0 0.0 0.0 0.0 0.0 0.0 0.0 2.0 0.0 0.0 0.0 0.0 0.0 0.0 0.0 0.0 0.0 0.0 0.0 0.0 0.0 0.0 0.0 0.0 0.0 0.0 0.0 0.0 0.0 0.6 1.8 2.8 3.1 4.0 4.9 5.9 7.1 6.6 6.9 7.0 7.2 7.5 8.3
0.0 0.0 0.0 0.0 0.0 0.0 0.0 0.0 0.0 0.0 0.0 0.0 0.0 0.0 0.0 0.0 0.0 0.0 0.0 0.0 0.0 0.0 0.0 0.0 0.0 0.0 0.0 0.0 0.0 0.1 1.6 3.0 3.5 4.3 5.3 6.4 7.9 8.8 9.4 10.0 10.5 10.1 11.0 10.6
3.7 0.0 0.0 4.3 0.0 0.0 0.0 0.0 0.0 0.0 0.0 0.0 0.0 0.0 0.0 0.0 0.0 0.0 0.0 0.0 0.0 0.0 0.0 0.0 0.0 0.0 0.0 0.0 0.8 1.7 2.9 4.1 5.1 6.0 7.0 8.6 9.4 10.0 11.2 12.2 12.2 12.6 12.2 11.8
5.8 0.0 12.8 0.0 0.0 0.0 0.0 0.0 0.0 0.0 0.0 0.0 0.0 0.0 0.0 0.0 0.0 0.0 0.0 0.0 0.0 0.0 0.0 0.0 0.0 0.0 0.0 0.7 2.0 3.3 4.8 5.7 6.8 7.8 8.8 9.8 10.6 11.8 12.5 12.7 13.1 13.3 12.8 12.3
7.0 7.9 0.7 0.0 0.0 0.0 0.0 0.0 0.0 0.0 0.0 0.0 0.0 0.0 0.0 0.0 0.0 0.0 0.0 0.0 0.0 0.0 0.0 0.0 0.0 0.0 0.5 3.0 3.8 5.1 6.6 7.4 8.6 8.4 9.8 10.8 12.2 13.0 13.0 13.4 13.7 13.1 12.1 12.7
5.0 9.4 12.1 0.0 0.0 0.0 0.0 0.0 0.0 0.0 0.0 0.0 0.0 0.0 0.0 0.0 0.0 0.0 0.0 0.0 0.0 0.0 0.0 0.0 0.0 0.0 1.5 4.7 5.9 7.3 7.6 8.0 8.6 8.8 10.2 12.1 12.6 13.0 13.0 13.7 12.4 12.2 12.4 12.5
5.5 8.1 0.6 0.0 0.0 0.0 0.9 0.0 0.0 0.0 0.0 0.0 0.0 0.0 0.0 0.0 0.0 0.0 0.0 0.0 0.0 0.0 0.0 0.0 0.0 0.8 3.3 5.8 7.2 7.6 8.2 8.6 9.2 9.8 10.0 11.8 12.8 13.1 13.6 13.6 13.4 14.6 14.1 14.1
3.4 8.0 7.6 0.0 0.0 0.0 0.0 0.0 0.0 0.0 0.0 0.0 0.0 0.0 0.0 0.0 0.0 0.0 0.0 0.0 0.0 0.0 0.0 0.0 0.6 1.8 4.9 7.0 7.9 8.6 10.0 10.2 10.4 10.8 10.4 11.2 13.4 13.8 13.4 14.3 15.4 15.3 14.8 14.6
0.0 0.0 0.0 0.0 0.0 0.0 0.0 0.0 0.0 0.0 0.0 0.0 0.0 0.0 0.0 0.0 0.0 0.0 0.0 0.0 0.0 0.0 0.0 1.4 2.1 2.4 5.4 7.8 8.9 10.2 11.4 12.3 12.0 10.8 10.6 12.0 13.8 15.2 15.6 15.7 16.3 15.9 15.1 16.0
0.0 0.0 0.0 0.0 0.0 0.0 0.0 0.0 0.0 0.0 0.0 0.0 0.0 0.0 0.0 0.0 0.0 0.0 0.0 0.0 0.0 0.0 1.4 3.7 3.9 4.8 4.8 8.9 9.9 11.4 12.2 12.6 12.4 12.8 13.1 13.7 13.6 14.3 16.6 16.6 16.6 15.4 15.8 17.1
0.0 0.0 0.0 0.0 0.0 0.0 0.0 0.0 0.0 0.0 0.0 0.0 0.0 0.0 0.0 0.0 0.0 0.0 0.0 0.0 0.0 0.0 1.5 3.6 5.7 6.9 8.8 10.2 11.4 12.0 12.4 12.2 13.0 13.0 14.3 15.3 14.6 15.9 15.2 15.2 15.3 15.7 16.7 16.6
0.0 0.0 0.0 0.0 0.0 0.0 0.0 0.0 0.0 0.0 0.0 0.0 0.0 0.0 0.0 0.0 0.0 0.0 0.0 0.0 0.0 0.7 2.1 4.6 7.0 8.6 10.4 11.2 12.0 12.9 12.6 13.2 14.8 15.4 16.2 16.5 16.9 17.1 14.2 13.7 12.8 12.8 12.7 14.3
0.0 0.0 0.0 0.0 0.0 0.0 0.0 0.0 0.0 0.0 0.0 0.0 0.0 0.0 0.0 0.0 0.0 0.0 0.0 0.0 0.0 1.3 3.0 4.9 7.8 9.8 11.5 12.2 12.0 12.9 14.6 13.8 16.0 16.3 16.7 17.4 17.6 18.3 18.7 16.8 14.0 13.9 13.6 13.4
0.0 0.0 0.0 0.0 0.0 0.0 0.0 0.0 0.0 0.0 0.0 0.0 0.0 0.0 0.0 0.0 0.0 0.0 0.0 0.0 0.0 2.0 4.2 6.1 8.8 10.5 12.2 12.5 12.8 14.5 14.8 15.8 16.3 16.8 17.0 17.0 17.3 17.9 18.4 19.7 20.2 19.5 16.0 15.0
0.0 0.0 0.0 0.0 0.0 0.0 0.0 0.0 0.0 0.0 0.0 0.0 0.0 0.0 0.0 0.0 0.0 0.0 0.0 0.0 1.3 3.6 5.6 8.1 10.1 12.0 13.0 12.7 13.4 14.6 14.8 16.3 16.8 17.0 17.0 17.3 17.7 18.3 18.8 19.5 20.0 20.2 19.1 18.2
0.0 0.0 0.0 0.0 0.0 0.0 0.0 0.0 0.0 0.0 0.0 0.0 0.0 0.0 0.0 0.0 0.0 0.0 0.0 0.7 3.2 5.7 6.9 9.0 10.9 12.2 12.9 13.6 14.8 15.0 15.5 16.6 17.2 17.2 17.3 17.8 18.4 19.0 19.6 20.0 20.7 20.9 20.8 20.5
0.0 0.0 0.0 0.0 0.0 0.0 0.0 0.0 0.0 0.0 0.0 0.0 0.0 0.0 0.0 0.0 0.0 0.0 1.3 3.5 3.8 3.8 6.3 8.9 11.2 12.8 13.7 13.6 15.0 16.0 16.6 17.0 17.3 17.5 17.8 18.3 18.9 19.5 19.8 20.6 21.1 21.0 21.0 20.6
0.0 0.0 0.0 0.0 0.0 0.0 0.0 0.0 0.0 0.0 0.0 0.0 0.0 0.0 0.0 0.0 0.0 0.0 3.0 5.3 6.7 8.2 9.8 11.1 12.3 13.3 14.1 15.0 15.5 16.2 16.8 17.1 17.5 17.9 18.2 18.8 19.1 19.5 20.4 21.0 21.2 21.0 21.1 20.5
0.0 0.0 0.0 0.0 0.0 0.0 0.0 0.0 0.0 0.0 0.0 0.0 0.0 0.0 0.0 0.0 0.0 0.0 3.8 6.1 9.0 10.5 11.0 12.3 13.1 13.8 14.6 15.4 16.0 16.4 16.8 17.4 17.9 18.1 18.5 19.1 19.5 19.9 20.9 21.3 21.3 21.4 21.6 21.7
0.0 0.0 0.0 0.0 0.0 0.0 0.0 0.0 0.0 0.0 0.0 0.0 0.0 0.0 0.0 0.0 0.9 2.7 5.8 7.3 7.8 7.6 10.4 12.5 13.6 14.2 15.0 15.8 16.2 16.7 17.0 17.8 18.3 18.5 19.0 19.5 19.8 20.3 21.0 21.6 21.9 22.1 22.8 23.2
0.0 0.0 0.0 0.0 0.0 0.0 0.0 0.0 0.0 0.0 0.0 0.0 0.0 0.0 0.0 0.3 3.5 4.9 7.0 10.5 10.2 11.8 11.7 13.2 14.0 14.7 15.7 16.0 16.7 17.0 17.5 18.3 18.5 18.9 19.3 19.7 20.1 20.5 21.0 21.3 22.1 22.4 22.9 23.4
0.0 0.0 0.0 0.0 0.0 0.0 0.0 0.0 0.0 0.0 0.0 0.0 0.0 0.0 0.8 3.5 5.1 7.8 7.9 7.4 10.0 12.4 12.8 13.6 14.4 15.2 15.6 16.5 17.1 17.5 18.1 18.9 18.9 19.2 19.5 20.0 20.2 20.6 21.0 21.4 21.9 22.2 22.8 23.1
0.0 0.0 0.0 0.0 0.0 0.0 0.0 0.0 0.0 0.0 0.0 0.0 0.0 0.0 2.1 2.2 3.5 7.1 8.7 11.3 11.4 12.2 13.0 14.0 14.7 15.4 16.2 17.0 17.6 17.9 18.7 19.2 19.2 19.4 19.7 20.1 20.1 20.5 20.9 21.3 21.6 22.1 22.6 23.0
0.0 0.0 0.0 0.0 0.0 0.0 0.0 0.0 0.0 0.0 0.0 1.0 2.0 3.5 2.8 4.2 7.0 9.0 9.6 10.0 11.4 12.6 13.5 14.5 15.3 15.8 16.7 17.5 17.7 18.2 18.9 19.1 19.2 19.4 19.8 19.9 20.0 20.2 20.8 21.0 21.5 21.8 22.3 22.7
0.0 0.0 0.0 0.0 0.0 0.0 0.5 1.0 1.4 1.6 2.0 3.1 4.5 5.4 6.1 6.0 4.0 9.2 11.0 11.1 12.2 13.3 14.4 15.0 15.4 16.3 17.3 17.6 17.9 18.6 18.8 18.8 19.0 19.4 19.5 19.7 19.9 20.2 20.8 20.9 21.2 21.8 22.1 22.3
0.0 0.0 0.0 0.0 1.2 2.2 3.2 4.1 4.2 4.2 4.3 5.1 6.1 6.8 8.5 7.9 9.1 10.3 11.7 12.2 13.1 14.0 14.9 15.4 16.0 16.8 17.2 17.5 17.9 18.1 18.3 18.4 18.7 18.8 19.1 19.4 19.7 20.3 20.4 20.6 20.9 21.4 21.6 21.9
0.0 0.0 0.0 0.8 2.1 3.2 4.8 6.3 6.7 5.8 5.8 6.1 6.9 9.3 10.1 11.5 11.7 12.0 12.5 13.2 13.7 14.5 15.0 15.5 16.2 16.9 17.2 17.4 17.6 17.7 17.9 18.1 18.2 18.5 18.8 19.4 19.6 19.9 20.1 20.3 20.6 20.9 21.3 21.9